User: anonymous   Login
Location: Unspecified
(0.0000°N, 0.0000°E)
Time: 19:03:10
(UTC+00:00)
Language:

1KUNS-PF - Orbit

View from above orbital plane
View from above orbital plane
View from above satellite
View from above satellite

Ground track
Ground track

The orbit data is extracted from the following two-line orbital elements,

1 43467U 98067NQ  18351.09069376  .00007409  00000-0  10066-3 0  9998
2 43467  51.6375 182.6277 0003212 103.7666 256.3684 15.58743639 34207
Epoch (UTC): 17 December 2018 02:10:35
Eccentricity: 0.0003212
inclination: 51.6375°
perigee height: 389 km
apogee height: 393 km
right ascension of ascending node: 182.6277°
argument of perigee: 103.7666°
revolutions per day: 15.58743639
mean anomaly at epoch: 256.3684°
orbit number at epoch: 3420

The dashed part of the orbit path shows where the satellite is in the earth's shadow,  

DLR